Weather reports worldwide

Advertisment
Zamora, Spain (8130): temperature & dewpoint: 14.01.2021 14:00:00 - 20.01.2021 14:00:00 (CET)Zamora, Spain (8130): wind speed: 14.01.2021 14:00:00 - 20.01.2021 14:00:00 (CET)Zamora, Spain (8130): wind direction: 14.01.2021 14:00:00 - 20.01.2021 14:00:00 (CET)Zamora, Spain (8130): reduced air pressure: 14.01.2021 14:00:00 - 20.01.2021 14:00:00 (CET)Zamora, Spain (8130): visibility: 14.01.2021 14:00:00 - 20.01.2021 14:00:00 (CET)Zamora, Spain (8130): precipitation: 14.01.2021 14:00:00 - 20.01.2021 14:00:00 (CET)
Date & Time tt [°C] td [°C] ff [km/h] ff [kn] dd ppp [hPa] vv [km] rr [mm]
20.01.2021 14:00:00 10,8 6,3 18 10 SW 1003,1 19 0,0
20.01.2021 13:00:00 10,6 6,2 16 9 SW 1004,0 20 -
20.01.2021 12:00:00 10,0 5,6 16 9 SW 1005,0 20 0,0
20.01.2021 11:00:00 8,2 4,8 11 6 SSW 1005,6 20 0,0
20.01.2021 10:00:00 6,2 3,4 9 5 SSW 1006,3 20 -
20.01.2021 09:00:00 6,4 3,4 11 6 S 1007,0 20 0,0
20.01.2021 08:00:00 6,1 3,8 9 5 SSW 1007,1 20 0,0
20.01.2021 07:00:00 5,0 4,1 5 3 S 1008,2 20 -
20.01.2021 06:00:00 4,1 4,1 9 5 S 1009,3 20 0,0
20.01.2021 05:00:00 1,8 1,8 8 4 SSE 1011,1 12 0,0
20.01.2021 04:00:00 -0,3 -0,3 2 1 ENE 1014,0 4,4 -
20.01.2021 03:00:00 -0,6 -0,6 2 1 WSW 1015,2 7 0,0
20.01.2021 02:00:00 -0,7 -0,7 4 2 S 1016,0 4,9 0,0
20.01.2021 01:00:00 -1,2 -1,2 2 1 ESE 1017,6 3,4 -
20.01.2021 00:00:00 -0,9 -0,9 2 1 SE 1018,4 3,8 0,0
19.01.2021 23:00:00 -0,9 -1,0 4 2 E 1019,3 2,6 0,0
19.01.2021 22:00:00 -0,8 -0,8 5 3 S 1020,2 3,4 -
19.01.2021 21:00:00 -0,9 -1,0 2 1 E 1021,0 2,6 0,0
19.01.2021 20:00:00 -0,6 -0,7 2 1 S 1021,2 2,5 0,0
19.01.2021 19:00:00 0,1 0,0 4 2 NE 1021,4 3,5 -
19.01.2021 18:00:00 0,1 -0,2 4 2 SSE 1022,1 3,9 0,0
19.01.2021 17:00:00 0,1 0,0 2 1 N 1022,6 4,1 0,0
19.01.2021 16:00:00 -0,3 -0,4 4 2 ENE 1023,3 3,4 -
19.01.2021 15:00:00 -0,9 -0,9 4 2 ENE 1024,3 1,3 0,0
19.01.2021 14:00:00 -1,4 -1,4 4 2 N 1025,7 0,6 0,0
19.01.2021 13:00:00 -1,9 -1,9 4 2 NE 1027,1 0,4 -
19.01.2021 12:00:00 -2,4 -2,4 4 2 ENE 1028,0 0,2 0,0
19.01.2021 11:00:00 -3,0 -3,0 4 2 N 1028,5 0,2 0,0
19.01.2021 10:00:00 -3,3 -3,3 4 2 NE 1028,4 0,2 -
19.01.2021 09:00:00 -3,4 -3,4 4 2 E 1028,5 0,3 0,0
19.01.2021 08:00:00 -3,2 -3,2 4 2 NNE 1028,8 0,2 0,0
19.01.2021 07:00:00 -3,0 -3,0 4 2 ENE 1029,9 0,2 -
19.01.2021 06:00:00 -2,8 -2,8 5 3 E 1028,9 0,3 0,0
19.01.2021 05:00:00 -2,7 -2,7 2 1 NNE 1029,1 0,1 0,0
19.01.2021 04:00:00 -2,9 -2,9 5 3 NNE 1029,6 0,1 -
19.01.2021 03:00:00 -2,8 -2,9 2 1 ESE 1029,7 0,8 0,0
19.01.2021 02:00:00 -2,5 -2,6 2 1 N 1030,1 1,5 0,0
19.01.2021 01:00:00 -2,2 -2,3 0 0 N 1030,5 0,3 -
19.01.2021 00:00:00 -1,8 -1,9 2 1 NW 1030,6 0,2 0,0
18.01.2021 23:00:00 -1,3 -1,6 4 2 NE 1030,6 0,9 0,0
18.01.2021 22:00:00 -0,8 -1,2 2 1 ENE 1030,3 2,6 -
18.01.2021 21:00:00 -0,1 -0,7 2 1 NNE 1030,3 4,5 0,0
18.01.2021 20:00:00 0,8 0,1 2 1 N 1030,0 - 0,0
18.01.2021 19:00:00 1,6 0,9 4 2 S 1029,5 8 -
18.01.2021 18:00:00 2,5 1,5 4 2 SSE 1029,0 6 0,0
18.01.2021 17:00:00 3,9 1,6 2 1 SSW 1028,7 11 0,0
18.01.2021 16:00:00 4,2 2,2 2 1 ESE 1028,9 7 -
18.01.2021 15:00:00 3,1 1,3 2 1 WNW 1029,9 10 0,0
18.01.2021 14:00:00 0,4 0,0 2 1 NNW 1031,6 6 0,0
18.01.2021 13:00:00 -0,6 -0,7 4 2 E 1032,9 0,5 -
18.01.2021 12:00:00 -1,7 -1,8 4 2 NE 1034,1 7 0,0
18.01.2021 11:00:00 -3,0 -3,0 4 2 ENE 1034,4 7 0,0
18.01.2021 10:00:00 -3,7 -3,7 0 0 N 1035,4 0,5 -
18.01.2021 09:00:00 -4,2 -4,3 2 1 NE 1034,0 0,7 0,0
18.01.2021 08:00:00 -4,2 -4,3 2 1 NE 1034,0 0,8 0,0
18.01.2021 07:00:00 -4,0 -4,0 2 1 N 1035,0 0,4 -
18.01.2021 06:00:00 -4,0 -4,0 4 2 NNW 1033,6 0,2 0,0
18.01.2021 05:00:00 -4,0 -4,1 4 2 N 1034,1 0,2 0,0
18.01.2021 04:00:00 -3,7 -3,7 5 3 N 1034,3 0,3 -
18.01.2021 03:00:00 -3,5 -3,5 5 3 N 1034,1 0,2 0,0
18.01.2021 02:00:00 -3,3 -3,3 4 2 NNE 1034,3 0,2 0,0
18.01.2021 01:00:00 -3,1 -3,1 4 2 NE 1034,5 0,3 -
18.01.2021 00:00:00 -2,9 -2,9 2 1 N 1034,7 0,3 0,0
17.01.2021 23:00:00 -2,8 -2,8 2 1 NW 1034,5 0,2 0,0
17.01.2021 22:00:00 -2,4 -2,4 5 3 N 1034,5 0,3 -
17.01.2021 21:00:00 -2,3 -2,4 8 4 NNE 1034,7 0,2 0,0
17.01.2021 20:00:00 -2,1 -2,4 4 2 N 1034,5 10 0,0
17.01.2021 19:00:00 -1,3 -1,9 2 1 NNW 1033,9 11 -
17.01.2021 18:00:00 -0,4 -1,1 2 1 N 1033,5 20 0,0
17.01.2021 17:00:00 -0,1 -1,1 2 1 SE 1033,4 19 0,0
17.01.2021 16:00:00 0,2 -0,9 4 2 N 1033,5 17 -
17.01.2021 15:00:00 -0,1 -1,1 2 1 E 1033,9 14 0,0
17.01.2021 14:00:00 -1,3 -1,9 2 1 NE 1035,2 19 0,0
17.01.2021 13:00:00 -1,9 -2,5 2 1 NE 1036,4 3,9 -
17.01.2021 12:00:00 -2,6 -3,0 2 1 ENE 1037,3 1,6 0,0
17.01.2021 11:00:00 -3,2 -3,5 2 1 NNE 1036,9 0,7 0,0
17.01.2021 10:00:00 -3,8 -3,9 2 1 E 1036,6 0,6 -
17.01.2021 09:00:00 -4,0 -4,3 2 1 S 1036,2 1,3 0,0
17.01.2021 08:00:00 -3,6 -3,7 2 1 ESE 1035,9 0,5 0,0
17.01.2021 07:00:00 -3,4 -3,4 2 1 ESE 1035,6 0,5 -
17.01.2021 06:00:00 -3,4 -3,5 2 1 ENE 1035,6 0,4 0,0
17.01.2021 05:00:00 -3,1 -3,2 2 1 NE 1035,6 0,4 0,0
17.01.2021 04:00:00 -3,0 -3,0 4 2 E 1035,7 0,5 -
17.01.2021 03:00:00 -2,8 -2,9 2 1 NNW 1035,5 0,2 0,0
17.01.2021 02:00:00 -2,6 -2,6 2 1 ESE 1035,8 0,4 0,0
17.01.2021 01:00:00 -2,3 -2,3 4 2 SSE 1036,1 0,3 -
17.01.2021 00:00:00 -2,2 -2,2 4 2 NE 1036,3 0,3 0,0
16.01.2021 23:00:00 -2,0 -2,0 4 2 ESE 1036,3 0,6 0,0
16.01.2021 22:00:00 -1,9 -1,9 2 1 N 1035,9 0,2 -
16.01.2021 21:00:00 -1,8 -1,9 2 1 ENE 1035,6 0,3 0,0
16.01.2021 20:00:00 -1,7 -1,8 2 1 E 1035,4 0,5 0,0
16.01.2021 19:00:00 -1,3 -1,4 4 2 SSE 1034,9 0,3 -
16.01.2021 18:00:00 -1,1 -1,4 2 1 NNW 1034,5 0,2 0,0
16.01.2021 17:00:00 -0,7 -1,0 2 1 ENE 1034,1 0,6 0,0
16.01.2021 16:00:00 -0,7 -1,0 2 1 NE 1034,1 1,0 -
16.01.2021 15:00:00 -0,7 -1,1 2 1 NNE 1034,5 0,7 0,0
16.01.2021 14:00:00 -1,1 -1,7 2 1 N 1035,2 1,2 0,0
16.01.2021 13:00:00 -1,5 -1,8 2 1 E 1036,0 1,0 -
16.01.2021 12:00:00 -2,3 -2,6 2 1 ENE 1036,7 0,8 0,0
16.01.2021 11:00:00 -2,7 -2,8 4 2 NNE 1036,2 0,4 0,0
16.01.2021 10:00:00 -3,1 -3,2 4 2 E 1035,8 0,7 -
16.01.2021 09:00:00 -3,3 -3,4 2 1 ESE 1035,3 0,8 0,0
16.01.2021 08:00:00 -3,5 -3,6 4 2 NE 1035,4 0,4 0,0
16.01.2021 07:00:00 -3,6 -3,7 2 1 ENE 1035,2 0,7 -
16.01.2021 06:00:00 -3,5 -3,6 2 1 ENE 1035,1 1,4 0,0
16.01.2021 05:00:00 -3,4 -3,5 2 1 NNE 1035,1 1,3 0,0
16.01.2021 04:00:00 -3,4 -3,5 2 1 N 1035,2 0,8 -
16.01.2021 03:00:00 -3,1 -3,1 4 2 ENE 1035,2 0,4 0,0
16.01.2021 02:00:00 -3,2 -3,2 4 2 NNE 1035,4 0,3 0,0
16.01.2021 01:00:00 -3,0 -3,0 4 2 N 1035,5 0,2 -
16.01.2021 00:00:00 -2,7 -2,7 4 2 NE 1035,7 0,2 0,0
15.01.2021 23:00:00 -2,5 -2,5 4 2 NE 1035,3 0,2 0,0
15.01.2021 22:00:00 -2,2 -2,2 4 2 NNE 1035,4 0,3 -
15.01.2021 21:00:00 -1,9 -1,9 2 1 N 1035,1 0,3 0,0
15.01.2021 20:00:00 -1,4 -1,4 5 3 N 1034,8 0,2 0,0
15.01.2021 19:00:00 -1,2 -1,2 4 2 N 1034,3 0,2 -
15.01.2021 18:00:00 -0,7 -0,8 4 2 ENE 1034,1 0,2 0,0
15.01.2021 17:00:00 -0,3 -0,4 4 2 NNE 1033,7 0,5 0,0
15.01.2021 16:00:00 -0,3 -0,4 4 2 NE 1033,9 2,1 -
15.01.2021 15:00:00 -0,4 -0,4 8 4 NNE 1034,3 2,4 0,0
15.01.2021 14:00:00 -0,4 -0,4 5 3 N 1034,3 0,6 0,0
15.01.2021 13:00:00 -1,0 -1,0 8 4 NNE 1035,2 0,3 -
15.01.2021 12:00:00 -1,0 -1,0 5 3 NE 1035,9 0,6 0,0
15.01.2021 11:00:00 -1,2 -1,2 5 3 NNE 1035,4 0,4 0,0
15.01.2021 10:00:00 -1,9 -1,9 5 3 NNE 1035,4 0,2 -
15.01.2021 09:00:00 -2,7 -2,7 4 2 NNE 1034,7 0,3 0,0
15.01.2021 08:00:00 -2,7 -2,7 4 2 ENE 1035,0 0,3 0,0
15.01.2021 07:00:00 -2,9 -2,9 4 2 N 1036,0 0,2 -
15.01.2021 06:00:00 -3,3 -3,4 4 2 NNE 1035,1 0,3 0,0
15.01.2021 05:00:00 -4,0 -4,1 2 1 NW 1035,6 0,3 0,0
15.01.2021 04:00:00 -4,4 -4,7 4 2 NNE 1035,6 0,5 -
15.01.2021 03:00:00 -4,0 -4,3 5 3 ENE 1035,3 0,3 0,0
15.01.2021 02:00:00 -3,6 -3,7 4 2 E 1035,1 0,3 0,0
15.01.2021 01:00:00 -3,5 -3,6 4 2 NNE 1035,4 0,2 -
15.01.2021 00:00:00 -3,3 -3,4 4 2 ENE 1035,3 0,2 0,0
14.01.2021 23:00:00 -3,2 -3,3 4 2 NNE 1035,1 0,2 0,0
14.01.2021 22:00:00 -3,2 -3,3 2 1 N 1034,8 0,2 -
14.01.2021 21:00:00 -3,2 -3,3 2 1 NW 1034,6 0,2 0,0
14.01.2021 20:00:00 -3,1 -3,4 2 1 N 1034,5 0,1 0,0
14.01.2021 19:00:00 -2,9 -3,3 2 1 ENE 1034,2 0,2 -
14.01.2021 18:00:00 -2,4 -3,0 4 2 ENE 1034,0 0,7 0,0
14.01.2021 17:00:00 -2,1 -2,5 4 2 ESE 1033,5 1,1 0,0
14.01.2021 16:00:00 -2,2 -2,8 4 2 NNE 1033,7 1,2 -
14.01.2021 15:00:00 -2,6 -3,0 2 1 NE 1033,4 0,7 0,0
14.01.2021 14:00:00 -3,2 -3,6 4 2 ENE 1034,2 0,6 0,0

tt = temperature
td = dewpoint
ff = wind speed
dd = wind direction
ppp = reduced air pressure
vv = visibility
rr = precipitation

Next stations